Location: Newark
(34.9500°N, 139.9667°E)
Time: 08:32:07
(UTC+00:00)

Explorer 11/Cluster Stage 4 - All Passes

Search period start: 09 December 2019 00:00
Search period end: 19 December 2019 00:00
Orbit: 467 x 1259 km, 28.8° (Epoch: 08 December)

Date Brightness Start Highest point End Pass type
(mag) Time Alt. Az. Time Alt. Az. Time Alt. Az.
09 Dec - 00:38:00 10° SW 00:43:08 24° SSE 00:47:29 10° ESE daylight
09 Dec - 02:26:08 10° WSW 02:31:27 38° S 02:35:47 10° ESE daylight
09 Dec - 04:15:05 10° WSW 04:19:34 35° S 04:23:19 10° ESE daylight
09 Dec - 06:04:39 10° WSW 06:07:16 16° SSW 06:09:42 10° SSE daylight
09 Dec - 22:41:07 10° S 22:43:55 12° SSE 22:46:34 10° SE daylight
10 Dec - 00:26:42 10° SW 00:32:23 28° SSE 00:37:11 10° ESE daylight
10 Dec - 02:15:07 10° WSW 02:20:47 41° S 02:25:21 10° ESE daylight
10 Dec - 04:04:16 10° WSW 04:08:56 35° S 04:12:47 10° SE daylight
10 Dec - 05:54:10 10° WSW 05:56:37 15° SSW 05:58:52 10° SSE daylight
10 Dec - 22:28:58 10° S 22:33:05 15° SSE 22:36:54 10° ESE daylight
11 Dec - 00:15:26 10° SW 00:21:37 32° SSE 00:26:47 10° ESE daylight
11 Dec - 02:04:07 10° WSW 02:10:05 44° S 02:14:53 10° ESE daylight
11 Dec - 03:53:25 10° WSW 03:58:16 34° SSW 04:02:15 10° SE daylight
11 Dec - 05:43:44 10° WSW 05:45:54 13° SSW 05:47:56 10° S daylight
11 Dec - 22:17:12 10° SSW 22:22:14 19° SSE 22:26:51 10° ESE daylight
12 Dec - 00:04:14 10° SW 00:10:49 36° SSE 00:16:20 10° ESE daylight
12 Dec - 01:53:07 10° WSW 01:59:22 46° S 02:04:23 10° ESE daylight
12 Dec - 03:42:34 10° WSW 03:47:35 33° SSW 03:51:42 10° SE daylight
12 Dec - 05:33:22 10° SW 05:35:11 12° SSW 05:36:53 10° S daylight
12 Dec - 22:05:36 10° SSW 22:11:21 22° SSE 22:16:36 10° ESE daylight
12 Dec - 23:53:04 10° SW 00:00:01 40° SSE 00:05:50 10° E daylight
13 Dec - 01:42:06 10° WSW 01:48:38 48° S 01:53:52 10° ESE daylight
13 Dec - 03:31:42 10° WSW 03:36:52 32° SSW 03:41:06 10° SE daylight
13 Dec - 05:23:14 10° SW 05:24:26 11° SSW 05:25:36 10° SSW daylight
13 Dec - 21:54:09 10° SSW 22:00:27 25° SSE 22:06:14 10° ESE daylight
13 Dec - 23:41:56 10° WSW 23:49:11 43° S 23:55:18 10° E daylight
14 Dec - 01:31:07 10° WSW 01:37:52 49° S 01:43:20 10° ESE daylight
14 Dec - 03:20:50 10° W 03:26:08 31° SSW 03:30:29 10° SE daylight
14 Dec - 19:59:13 10° SSE 20:01:02 11° SSE 20:02:50 10° SE visible
14 Dec - 21:42:48 10° SSW 21:49:32 28° SSE 21:55:45 10° ESE daylight
14 Dec - 23:30:50 10° WSW 23:38:20 47° S 23:44:43 10° E daylight
15 Dec - 01:20:07 10° WSW 01:27:05 49° S 01:32:45 10° ESE daylight
15 Dec - 03:09:57 10° W 03:15:21 29° SSW 03:19:50 10° SE daylight
15 Dec - 19:46:36 10° S 19:50:04 13° SSE 19:53:31 10° ESE visible
15 Dec - 21:31:33 10° SW 21:38:35 32° SSE 21:45:12 10° E daylight
15 Dec - 23:19:46 10° WSW 23:27:27 50° S 23:34:06 10° E daylight
16 Dec - 01:09:07 10° W 01:16:17 49° S 01:22:10 10° ESE daylight
16 Dec - 02:59:05 10° W 03:04:34 28° SSW 03:09:08 10° SE daylight
16 Dec - 19:34:42 10° S 19:39:06 16° SSE 19:43:30 10° ESE visible
16 Dec - 21:20:21 10° SW 21:27:38 35° SSE 21:34:33 10° E daylight
16 Dec - 23:08:44 10° WSW 23:16:34 52° S 23:23:27 10° E daylight
17 Dec - 00:58:08 10° W 01:05:27 49° S 01:11:32 10° ESE daylight
17 Dec - 02:48:13 10° WSW 02:53:44 26° SSW 02:58:22 10° SSE daylight
17 Dec - 19:23:06 10° S 19:28:06 18° SSE 19:33:13 10° ESE visible
17 Dec - 21:09:14 10° SW 21:16:41 38° SSE 21:23:53 10° E visible
17 Dec - 22:57:43 10° WSW 23:05:41 54° S 23:12:47 10° ESE daylight
18 Dec - 00:47:09 10° W 00:54:35 48° SSW 01:00:52 10° ESE daylight
18 Dec - 02:37:23 10° WSW 02:42:52 25° SSW 02:47:34 10° SSE daylight
18 Dec - 19:11:40 10° SSW 19:17:07 20° SSE 19:22:45 10° ESE visible
18 Dec - 20:58:10 10° SW 21:05:43 41° SSE 21:13:09 10° E visible
18 Dec - 22:46:44 10° WSW 22:54:46 55° S 23:02:04 10° ESE daylight
